Location: Amsterdam
(30.7274°N, 84.4357°W)
Time: 17:27:14
(UTC+00:00)

Injun/Solrad 3 - Pass Details

Date: 19 February 2026
Orbit: 871 x 985 km, 66.8° (Epoch: 11 March)

Event Time Altitude Azimuth Distance (km) Brightness Sun altitude
Rises 01:15:20 0° 345° (NNW) 3,591 11.2 -23.7°
Reaches altitude 10° 01:18:05 10° 354° (N) 2,662 10.4 -24.3°
Enters shadow 01:21:59 30° 27° (NNE) 1,641 8.9 -25.1°
Maximum altitude 01:23:44 35° 59° (ENE) 1,495 - -25.5°
Drops below altitude 10° 01:29:28 10° 124° (SE) 2,712 - -26.7°
Sets 01:32:17 0° 133° (SE) 3,666 - -27.3°
